Torna al catalogo

THORAD AGENA D DEB

AttivoSSO
NORAD 4859·DEBRIS·🇺🇸 United States

Lanciato Apr 8, 1970 da Vandenberg Space Force Base

Loading…

Prossimi Passaggi

TLE

Source: Space-Track
1 04859U 70025EP  26230.25335964  .00000288  00000-0  43528-3 0  9993
2 04859  99.9484 330.2715 0050685 145.7131 242.7043 13.61284362776163

Traccia THORAD AGENA D DEB in tempo reale con AllMySat

Download on the App Store